TimeCST,TemperatureF,Dew PointF,Humidity,Sea Level PressureIn,VisibilityMPH,Wind Direction,Wind SpeedMPH,Gust SpeedMPH,PrecipitationIn,Events,Conditions,WindDirDegrees,DateUTC
12:19 AM,57.2,57.2,100,29.67,5.0,South,12.7,-,N/A,Rain-Thunderstorm,Heavy Thunderstorms and Rain,170,2012-11-11 06:19:00
12:53 AM,57.9,57.0,97,29.65,6.0,South,12.7,23.0,0.21,Rain,Rain,180,2012-11-11 06:53:00
1:53 AM,57.9,57.0,97,29.65,10.0,South,9.2,-,0.11,,Overcast,190,2012-11-11 07:53:00
2:02 AM,57.2,57.2,100,29.66,10.0,South,9.2,-,N/A,,Overcast,180,2012-11-11 08:02:00
2:41 AM,48.2,48.2,100,29.68,7.0,NW,18.4,26.5,0.06,Rain,Rain,310,2012-11-11 08:41:00
2:48 AM,44.6,44.6,100,29.68,6.0,NW,18.4,25.3,0.09,Rain,Heavy Rain,320,2012-11-11 08:48:00
2:49 AM,45.0,45.0,100,29.67,6.0,NW,17.3,25.3,0.09,Rain,Heavy Rain,320,2012-11-11 08:49:00
2:56 AM,44.6,44.6,100,29.69,5.0,NNW,16.1,24.2,0.03,Rain,Heavy Rain,330,2012-11-11 08:56:00
3:53 AM,37.9,37.9,100,29.75,6.0,NW,18.4,34.5,0.21,Rain,Heavy Rain,310,2012-11-11 09:53:00
4:53 AM,36.0,36.0,100,29.73,10.0,NNW,17.3,29.9,0.04,,Overcast,330,2012-11-11 10:53:00
5:06 AM,35.6,35.6,100,29.78,10.0,NW,15.0,24.2,0.00,Rain,Light Rain,310,2012-11-11 11:06:00
5:53 AM,34.0,33.1,96,29.80,10.0,NW,20.7,26.5,0.00,Rain,Light Rain,320,2012-11-11 11:53:00
6:53 AM,33.1,30.9,92,29.82,9.0,NW,13.8,24.2,0.01,,Overcast,320,2012-11-11 12:53:00
7:11 AM,33.8,32.0,93,29.80,10.0,NNW,16.1,24.2,N/A,,Overcast,340,2012-11-11 13:11:00
7:33 AM,33.8,32.0,93,29.85,10.0,NW,12.7,-,0.00,Rain,Light Rain,320,2012-11-11 13:33:00
7:53 AM,32.0,30.9,96,29.88,10.0,NW,17.3,23.0,0.00,,Overcast,320,2012-11-11 13:53:00
8:53 AM,30.9,28.0,89,29.88,9.0,NNW,18.4,25.3,N/A,,Overcast,330,2012-11-11 14:53:00
9:27 AM,30.2,26.6,86,29.92,10.0,NW,19.6,26.5,N/A,,Overcast,320,2012-11-11 15:27:00
9:53 AM,30.0,26.1,85,29.90,7.0,NNW,19.6,31.1,N/A,,Overcast,330,2012-11-11 15:53:00
10:45 AM,30.2,24.8,80,29.95,10.0,NNW,19.6,26.5,N/A,,Overcast,330,2012-11-11 16:45:00
10:53 AM,30.0,24.1,79,29.94,10.0,NNW,18.4,26.5,N/A,,Overcast,330,2012-11-11 16:53:00
11:53 AM,28.9,21.9,75,29.98,10.0,NNW,13.8,24.2,N/A,,Overcast,330,2012-11-11 17:53:00
12:44 PM,30.2,21.2,69,29.96,10.0,NW,17.3,24.2,N/A,,Overcast,320,2012-11-11 18:44:00
12:53 PM,30.9,21.9,69,29.96,10.0,NNW,17.3,26.5,N/A,,Overcast,330,2012-11-11 18:53:00
1:46 PM,32.0,23.0,69,29.96,10.0,NNW,15.0,24.2,N/A,,Mostly Cloudy,330,2012-11-11 19:46:00
1:53 PM,33.1,23.0,66,29.98,10.0,NW,15.0,24.2,N/A,,Mostly Cloudy,320,2012-11-11 19:53:00
2:00 PM,33.8,21.2,60,29.99,10.0,NW,17.3,25.3,N/A,,Scattered Clouds,310,2012-11-11 20:00:00
2:53 PM,34.0,21.0,59,30.00,10.0,NW,15.0,24.2,N/A,,Partly Cloudy,320,2012-11-11 20:53:00
3:53 PM,34.0,21.0,59,30.04,10.0,NNW,17.3,24.2,N/A,,Clear,330,2012-11-11 21:53:00
4:53 PM,32.0,19.0,59,30.09,10.0,NW,12.7,-,N/A,,Clear,320,2012-11-11 22:53:00
5:53 PM,30.9,18.0,59,30.12,10.0,NW,8.1,-,N/A,,Clear,310,2012-11-11 23:53:00
6:53 PM,28.0,19.0,69,30.15,10.0,WNW,5.8,-,N/A,,Clear,300,2012-11-12 00:53:00
7:53 PM,27.0,19.0,72,30.18,10.0,WNW,9.2,-,N/A,,Clear,290,2012-11-12 01:53:00
8:53 PM,27.0,18.0,69,30.20,10.0,West,8.1,-,N/A,,Clear,270,2012-11-12 02:53:00
9:53 PM,26.1,17.1,69,30.22,10.0,West,9.2,-,N/A,,Clear,260,2012-11-12 03:53:00
10:53 PM,26.1,17.1,69,30.23,10.0,West,10.4,-,N/A,,Clear,260,2012-11-12 04:53:00
11:53 PM,25.0,17.1,72,30.25,10.0,West,9.2,-,N/A,,Clear,260,2012-11-12 05:53:00